Index of /20260426/WXO-DD/model_rdps/10km/18/031
Name Last modified Size Description
Parent Directory -
20260426T18Z_MSC_RDPS_AbsoluteVorticity_IsbL-0250_RLatLon0.09_PT031H.grib2 2026-04-26 21:30 615K
20260426T18Z_MSC_RDPS_AbsoluteVorticity_IsbL-0500_RLatLon0.09_PT031H.grib2 2026-04-26 21:30 564K
20260426T18Z_MSC_RDPS_AbsoluteVorticity_IsbL-0700_RLatLon0.09_PT031H.grib2 2026-04-26 21:30 619K
20260426T18Z_MSC_RDPS_AbsoluteVorticity_IsbL-0850_RLatLon0.09_PT031H.grib2 2026-04-26 21:30 772K
20260426T18Z_MSC_RDPS_AirTemp_AGL-120m_RLatLon0.09_PT031H.grib2 2026-04-26 21:30 388K
20260426T18Z_MSC_RDPS_AirTemp_AGL-2m_RLatLon0.09_PT031H.grib2 2026-04-26 21:30 627K
20260426T18Z_MSC_RDPS_AirTemp_AGL-40m_RLatLon0.09_PT031H.grib2 2026-04-26 21:30 400K
20260426T18Z_MSC_RDPS_AirTemp_AGL-80m_RLatLon0.09_PT031H.grib2 2026-04-26 21:30 392K
20260426T18Z_MSC_RDPS_AirTemp_IsbL-0001_RLatLon0.09_PT031H.grib2 2026-04-26 21:30 260K
20260426T18Z_MSC_RDPS_AirTemp_IsbL-0005_RLatLon0.09_PT031H.grib2 2026-04-26 21:30 294K
20260426T18Z_MSC_RDPS_AirTemp_IsbL-0010_RLatLon0.09_PT031H.grib2 2026-04-26 21:30 307K
20260426T18Z_MSC_RDPS_AirTemp_IsbL-0020_RLatLon0.09_PT031H.grib2 2026-04-26 21:30 324K
20260426T18Z_MSC_RDPS_AirTemp_IsbL-0030_RLatLon0.09_PT031H.grib2 2026-04-26 21:30 340K
20260426T18Z_MSC_RDPS_AirTemp_IsbL-0050_RLatLon0.09_PT031H.grib2 2026-04-26 21:30 320K
20260426T18Z_MSC_RDPS_AirTemp_IsbL-0100_RLatLon0.09_PT031H.grib2 2026-04-26 21:30 431K
20260426T18Z_MSC_RDPS_AirTemp_IsbL-0150_RLatLon0.09_PT031H.grib2 2026-04-26 21:30 428K
20260426T18Z_MSC_RDPS_AirTemp_IsbL-0175_RLatLon0.09_PT031H.grib2 2026-04-26 21:30 419K
20260426T18Z_MSC_RDPS_AirTemp_IsbL-0200_RLatLon0.09_PT031H.grib2 2026-04-26 21:30 425K
20260426T18Z_MSC_RDPS_AirTemp_IsbL-0225_RLatLon0.09_PT031H.grib2 2026-04-26 21:30 423K
20260426T18Z_MSC_RDPS_AirTemp_IsbL-0250_RLatLon0.09_PT031H.grib2 2026-04-26 21:30 430K
20260426T18Z_MSC_RDPS_AirTemp_IsbL-0275_RLatLon0.09_PT031H.grib2 2026-04-26 21:30 410K
20260426T18Z_MSC_RDPS_AirTemp_IsbL-0300_RLatLon0.09_PT031H.grib2 2026-04-26 21:30 416K
20260426T18Z_MSC_RDPS_AirTemp_IsbL-0350_RLatLon0.09_PT031H.grib2 2026-04-26 21:30 427K
20260426T18Z_MSC_RDPS_AirTemp_IsbL-0400_RLatLon0.09_PT031H.grib2 2026-04-26 21:30 428K
20260426T18Z_MSC_RDPS_AirTemp_IsbL-0450_RLatLon0.09_PT031H.grib2 2026-04-26 21:30 435K
20260426T18Z_MSC_RDPS_AirTemp_IsbL-0500_RLatLon0.09_PT031H.grib2 2026-04-26 21:30 411K
20260426T18Z_MSC_RDPS_AirTemp_IsbL-0550_RLatLon0.09_PT031H.grib2 2026-04-26 21:30 430K
20260426T18Z_MSC_RDPS_AirTemp_IsbL-0600_RLatLon0.09_PT031H.grib2 2026-04-26 21:30 447K
20260426T18Z_MSC_RDPS_AirTemp_IsbL-0650_RLatLon0.09_PT031H.grib2 2026-04-26 21:30 458K
20260426T18Z_MSC_RDPS_AirTemp_IsbL-0700_RLatLon0.09_PT031H.grib2 2026-04-26 21:30 483K
20260426T18Z_MSC_RDPS_AirTemp_IsbL-0750_RLatLon0.09_PT031H.grib2 2026-04-26 21:30 410K
20260426T18Z_MSC_RDPS_AirTemp_IsbL-0800_RLatLon0.09_PT031H.grib2 2026-04-26 21:30 451K
20260426T18Z_MSC_RDPS_AirTemp_IsbL-0850_RLatLon0.09_PT031H.grib2 2026-04-26 21:30 493K
20260426T18Z_MSC_RDPS_AirTemp_IsbL-0875_RLatLon0.09_PT031H.grib2 2026-04-26 21:30 508K
20260426T18Z_MSC_RDPS_AirTemp_IsbL-0900_RLatLon0.09_PT031H.grib2 2026-04-26 21:30 527K
20260426T18Z_MSC_RDPS_AirTemp_IsbL-0925_RLatLon0.09_PT031H.grib2 2026-04-26 21:30 527K
20260426T18Z_MSC_RDPS_AirTemp_IsbL-0950_RLatLon0.09_PT031H.grib2 2026-04-26 21:30 528K
20260426T18Z_MSC_RDPS_AirTemp_IsbL-0970_RLatLon0.09_PT031H.grib2 2026-04-26 21:30 528K
20260426T18Z_MSC_RDPS_AirTemp_IsbL-0985_RLatLon0.09_PT031H.grib2 2026-04-26 21:30 520K
20260426T18Z_MSC_RDPS_AirTemp_IsbL-1000_RLatLon0.09_PT031H.grib2 2026-04-26 21:30 506K
20260426T18Z_MSC_RDPS_AirTemp_IsbL-1015_RLatLon0.09_PT031H.grib2 2026-04-26 21:30 504K
20260426T18Z_MSC_RDPS_Albedo_Sfc_RLatLon0.09_PT031H.grib2 2026-04-26 21:30 163K
20260426T18Z_MSC_RDPS_CAPE_Sfc_RLatLon0.09_PT031H.grib2 2026-04-26 21:30 1.8M
20260426T18Z_MSC_RDPS_CIN_Sfc_RLatLon0.09_PT031H.grib2 2026-04-26 21:30 1.2M
20260426T18Z_MSC_RDPS_CloudWater_EAtm_RLatLon0.09_PT031H.grib2 2026-04-26 21:30 220K
20260426T18Z_MSC_RDPS_ConvectivePrecip-Accum_Sfc_RLatLon0.09_PT031H.grib2 2026-04-26 21:30 940K
20260426T18Z_MSC_RDPS_DewPointDepression_AGL-2m_RLatLon0.09_PT031H.grib2 2026-04-26 21:30 406K
20260426T18Z_MSC_RDPS_DewPointDepression_IsbL-0001_RLatLon0.09_PT031H.grib2 2026-04-26 21:30 193
20260426T18Z_MSC_RDPS_DewPointDepression_IsbL-0005_RLatLon0.09_PT031H.grib2 2026-04-26 21:30 193
20260426T18Z_MSC_RDPS_DewPointDepression_IsbL-0010_RLatLon0.09_PT031H.grib2 2026-04-26 21:30 193
20260426T18Z_MSC_RDPS_DewPointDepression_IsbL-0020_RLatLon0.09_PT031H.grib2 2026-04-26 21:30 193
20260426T18Z_MSC_RDPS_DewPointDepression_IsbL-0030_RLatLon0.09_PT031H.grib2 2026-04-26 21:30 193
20260426T18Z_MSC_RDPS_DewPointDepression_IsbL-0050_RLatLon0.09_PT031H.grib2 2026-04-26 21:30 87K
20260426T18Z_MSC_RDPS_DewPointDepression_IsbL-0100_RLatLon0.09_PT031H.grib2 2026-04-26 21:30 129K
20260426T18Z_MSC_RDPS_DewPointDepression_IsbL-0150_RLatLon0.09_PT031H.grib2 2026-04-26 21:30 151K
20260426T18Z_MSC_RDPS_DewPointDepression_IsbL-0175_RLatLon0.09_PT031H.grib2 2026-04-26 21:30 187K
20260426T18Z_MSC_RDPS_DewPointDepression_IsbL-0200_RLatLon0.09_PT031H.grib2 2026-04-26 21:30 227K
20260426T18Z_MSC_RDPS_DewPointDepression_IsbL-0225_RLatLon0.09_PT031H.grib2 2026-04-26 21:30 268K
20260426T18Z_MSC_RDPS_DewPointDepression_IsbL-0250_RLatLon0.09_PT031H.grib2 2026-04-26 21:30 302K
20260426T18Z_MSC_RDPS_DewPointDepression_IsbL-0275_RLatLon0.09_PT031H.grib2 2026-04-26 21:30 312K
20260426T18Z_MSC_RDPS_DewPointDepression_IsbL-0300_RLatLon0.09_PT031H.grib2 2026-04-26 21:30 328K
20260426T18Z_MSC_RDPS_DewPointDepression_IsbL-0350_RLatLon0.09_PT031H.grib2 2026-04-26 21:30 333K
20260426T18Z_MSC_RDPS_DewPointDepression_IsbL-0400_RLatLon0.09_PT031H.grib2 2026-04-26 21:30 347K
20260426T18Z_MSC_RDPS_DewPointDepression_IsbL-0450_RLatLon0.09_PT031H.grib2 2026-04-26 21:30 361K
20260426T18Z_MSC_RDPS_DewPointDepression_IsbL-0500_RLatLon0.09_PT031H.grib2 2026-04-26 21:30 367K
20260426T18Z_MSC_RDPS_DewPointDepression_IsbL-0550_RLatLon0.09_PT031H.grib2 2026-04-26 21:30 378K
20260426T18Z_MSC_RDPS_DewPointDepression_IsbL-0600_RLatLon0.09_PT031H.grib2 2026-04-26 21:30 388K
20260426T18Z_MSC_RDPS_DewPointDepression_IsbL-0650_RLatLon0.09_PT031H.grib2 2026-04-26 21:30 393K
20260426T18Z_MSC_RDPS_DewPointDepression_IsbL-0700_RLatLon0.09_PT031H.grib2 2026-04-26 21:30 405K
20260426T18Z_MSC_RDPS_DewPointDepression_IsbL-0750_RLatLon0.09_PT031H.grib2 2026-04-26 21:30 429K
20260426T18Z_MSC_RDPS_DewPointDepression_IsbL-0800_RLatLon0.09_PT031H.grib2 2026-04-26 21:30 454K
20260426T18Z_MSC_RDPS_DewPointDepression_IsbL-0850_RLatLon0.09_PT031H.grib2 2026-04-26 21:30 475K
20260426T18Z_MSC_RDPS_DewPointDepression_IsbL-0875_RLatLon0.09_PT031H.grib2 2026-04-26 21:30 475K
20260426T18Z_MSC_RDPS_DewPointDepression_IsbL-0900_RLatLon0.09_PT031H.grib2 2026-04-26 21:30 467K
20260426T18Z_MSC_RDPS_DewPointDepression_IsbL-0925_RLatLon0.09_PT031H.grib2 2026-04-26 21:30 454K
20260426T18Z_MSC_RDPS_DewPointDepression_IsbL-0950_RLatLon0.09_PT031H.grib2 2026-04-26 21:30 443K
20260426T18Z_MSC_RDPS_DewPointDepression_IsbL-0970_RLatLon0.09_PT031H.grib2 2026-04-26 21:30 433K
20260426T18Z_MSC_RDPS_DewPointDepression_IsbL-0985_RLatLon0.09_PT031H.grib2 2026-04-26 21:30 426K
20260426T18Z_MSC_RDPS_DewPointDepression_IsbL-1000_RLatLon0.09_PT031H.grib2 2026-04-26 21:30 422K
20260426T18Z_MSC_RDPS_DewPointDepression_IsbL-1015_RLatLon0.09_PT031H.grib2 2026-04-26 21:30 414K
20260426T18Z_MSC_RDPS_DewPoint_AGL-2m_RLatLon0.09_PT031H.grib2 2026-04-26 21:30 308K
20260426T18Z_MSC_RDPS_DownwardLongwaveRadiationFlux-Accum_Sfc_RLatLon0.09_PT031H.grib2 2026-04-26 21:30 487K
20260426T18Z_MSC_RDPS_DownwardShortwaveRadiationFlux-Accum_NTAtm_RLatLon0.09_PT031H.grib2 2026-04-26 21:30 151K
20260426T18Z_MSC_RDPS_DownwardShortwaveRadiationFlux-Accum_Sfc_RLatLon0.09_PT031H.grib2 2026-04-26 21:30 561K
20260426T18Z_MSC_RDPS_FreezingRain-Accum1h_Sfc_RLatLon0.09_PT031H.grib2 2026-04-26 21:30 14K
20260426T18Z_MSC_RDPS_FreezingRain-Accum_Sfc_RLatLon0.09_PT031H.grib2 2026-04-26 21:30 110K
20260426T18Z_MSC_RDPS_GeopotentialHeight_IsbL-0001_RLatLon0.09_PT031H.grib2 2026-04-26 21:30 241K
20260426T18Z_MSC_RDPS_GeopotentialHeight_IsbL-0005_RLatLon0.09_PT031H.grib2 2026-04-26 21:30 340K
20260426T18Z_MSC_RDPS_GeopotentialHeight_IsbL-0010_RLatLon0.09_PT031H.grib2 2026-04-26 21:30 307K
20260426T18Z_MSC_RDPS_GeopotentialHeight_IsbL-0020_RLatLon0.09_PT031H.grib2 2026-04-26 21:30 307K
20260426T18Z_MSC_RDPS_GeopotentialHeight_IsbL-0030_RLatLon0.09_PT031H.grib2 2026-04-26 21:30 309K
20260426T18Z_MSC_RDPS_GeopotentialHeight_IsbL-0050_RLatLon0.09_PT031H.grib2 2026-04-26 21:30 310K
20260426T18Z_MSC_RDPS_GeopotentialHeight_IsbL-0100_RLatLon0.09_PT031H.grib2 2026-04-26 21:30 290K
20260426T18Z_MSC_RDPS_GeopotentialHeight_IsbL-0150_RLatLon0.09_PT031H.grib2 2026-04-26 21:30 232K
20260426T18Z_MSC_RDPS_GeopotentialHeight_IsbL-0175_RLatLon0.09_PT031H.grib2 2026-04-26 21:30 235K
20260426T18Z_MSC_RDPS_GeopotentialHeight_IsbL-0200_RLatLon0.09_PT031H.grib2 2026-04-26 21:30 268K
20260426T18Z_MSC_RDPS_GeopotentialHeight_IsbL-0225_RLatLon0.09_PT031H.grib2 2026-04-26 21:30 270K
20260426T18Z_MSC_RDPS_GeopotentialHeight_IsbL-0250_RLatLon0.09_PT031H.grib2 2026-04-26 21:30 271K
20260426T18Z_MSC_RDPS_GeopotentialHeight_IsbL-0275_RLatLon0.09_PT031H.grib2 2026-04-26 21:30 270K
20260426T18Z_MSC_RDPS_GeopotentialHeight_IsbL-0300_RLatLon0.09_PT031H.grib2 2026-04-26 21:30 269K
20260426T18Z_MSC_RDPS_GeopotentialHeight_IsbL-0350_RLatLon0.09_PT031H.grib2 2026-04-26 21:30 234K
20260426T18Z_MSC_RDPS_GeopotentialHeight_IsbL-0400_RLatLon0.09_PT031H.grib2 2026-04-26 21:30 230K
20260426T18Z_MSC_RDPS_GeopotentialHeight_IsbL-0450_RLatLon0.09_PT031H.grib2 2026-04-26 21:30 298K
20260426T18Z_MSC_RDPS_GeopotentialHeight_IsbL-0500_RLatLon0.09_PT031H.grib2 2026-04-26 21:30 293K
20260426T18Z_MSC_RDPS_GeopotentialHeight_IsbL-0550_RLatLon0.09_PT031H.grib2 2026-04-26 21:30 290K
20260426T18Z_MSC_RDPS_GeopotentialHeight_IsbL-0600_RLatLon0.09_PT031H.grib2 2026-04-26 21:30 287K
20260426T18Z_MSC_RDPS_GeopotentialHeight_IsbL-0650_RLatLon0.09_PT031H.grib2 2026-04-26 21:30 285K
20260426T18Z_MSC_RDPS_GeopotentialHeight_IsbL-0700_RLatLon0.09_PT031H.grib2 2026-04-26 21:30 254K
20260426T18Z_MSC_RDPS_GeopotentialHeight_IsbL-0750_RLatLon0.09_PT031H.grib2 2026-04-26 21:30 256K
20260426T18Z_MSC_RDPS_GeopotentialHeight_IsbL-0800_RLatLon0.09_PT031H.grib2 2026-04-26 21:30 260K
20260426T18Z_MSC_RDPS_GeopotentialHeight_IsbL-0850_RLatLon0.09_PT031H.grib2 2026-04-26 21:30 351K
20260426T18Z_MSC_RDPS_GeopotentialHeight_IsbL-0875_RLatLon0.09_PT031H.grib2 2026-04-26 21:30 354K
20260426T18Z_MSC_RDPS_GeopotentialHeight_IsbL-0900_RLatLon0.09_PT031H.grib2 2026-04-26 21:30 358K
20260426T18Z_MSC_RDPS_GeopotentialHeight_IsbL-0925_RLatLon0.09_PT031H.grib2 2026-04-26 21:30 361K
20260426T18Z_MSC_RDPS_GeopotentialHeight_IsbL-0950_RLatLon0.09_PT031H.grib2 2026-04-26 21:30 364K
20260426T18Z_MSC_RDPS_GeopotentialHeight_IsbL-0970_RLatLon0.09_PT031H.grib2 2026-04-26 21:30 370K
20260426T18Z_MSC_RDPS_GeopotentialHeight_IsbL-0985_RLatLon0.09_PT031H.grib2 2026-04-26 21:30 377K
20260426T18Z_MSC_RDPS_GeopotentialHeight_IsbL-1000_RLatLon0.09_PT031H.grib2 2026-04-26 21:30 388K
20260426T18Z_MSC_RDPS_GeopotentialHeight_IsbL-1015_RLatLon0.09_PT031H.grib2 2026-04-26 21:30 403K
20260426T18Z_MSC_RDPS_Humidex_Sfc_RLatLon0.09_PT031H.grib2 2026-04-26 21:30 2.3M
20260426T18Z_MSC_RDPS_IcePellets-Accum1h_Sfc_RLatLon0.09_PT031H.grib2 2026-04-26 21:30 5.3K
20260426T18Z_MSC_RDPS_IcePellets-Accum_Sfc_RLatLon0.09_PT031H.grib2 2026-04-26 21:30 19K
20260426T18Z_MSC_RDPS_KIndex_Sfc_RLatLon0.09_PT031H.grib2 2026-04-26 21:30 2.5M
20260426T18Z_MSC_RDPS_LatentHeatNetFlux_Sfc_RLatLon0.09_PT031H.grib2 2026-04-26 21:30 342K
20260426T18Z_MSC_RDPS_LiftedIndex-MU-VT_IsbL-0500_RLatLon0.09_PT031H.grib2 2026-04-26 21:30 2.4M
20260426T18Z_MSC_RDPS_NetLongwaveRadiationFlux-Accum_Sfc_RLatLon0.09_PT031H.grib2 2026-04-26 21:30 493K
20260426T18Z_MSC_RDPS_NetShortwaveRadiationFlux-Accum_Sfc_RLatLon0.09_PT031H.grib2 2026-04-26 21:30 562K
20260426T18Z_MSC_RDPS_PlanetaryBoundaryLayerHeight_Sfc_RLatLon0.09_PT031H.grib2 2026-04-26 21:30 1.0M
20260426T18Z_MSC_RDPS_Precip-Accum1h_Sfc_RLatLon0.09_PT031H.grib2 2026-04-26 21:30 1.2M
20260426T18Z_MSC_RDPS_Precip-Accum_Sfc_RLatLon0.09_PT031H.grib2 2026-04-26 21:30 1.9M
20260426T18Z_MSC_RDPS_PrecipRate_Sfc_RLatLon0.09_PT031H.grib2 2026-04-26 21:30 177K
20260426T18Z_MSC_RDPS_PrecipType-Instant_Sfc_RLatLon0.09_PT031H.grib2 2026-04-26 21:30 572K
20260426T18Z_MSC_RDPS_Pressure-Trend3h_Sfc_RLatLon0.09_PT031H.grib2 2026-04-26 21:30 1.2M
20260426T18Z_MSC_RDPS_Pressure_MSL_RLatLon0.09_PT031H.grib2 2026-04-26 21:30 292K
20260426T18Z_MSC_RDPS_Pressure_PVU-1.5_RLatLon0.09_PT031H.grib2 2026-04-26 21:30 2.5M
20260426T18Z_MSC_RDPS_Pressure_PVU-1_RLatLon0.09_PT031H.grib2 2026-04-26 21:30 2.4M
20260426T18Z_MSC_RDPS_Pressure_PVU-2_RLatLon0.09_PT031H.grib2 2026-04-26 21:30 2.4M
20260426T18Z_MSC_RDPS_Pressure_Sfc_RLatLon0.09_PT031H.grib2 2026-04-26 21:30 499K
20260426T18Z_MSC_RDPS_RadiativeTemp_Sfc_RLatLon0.09_PT031H.grib2 2026-04-26 21:30 310K
20260426T18Z_MSC_RDPS_Rain-Accum1h_Sfc_RLatLon0.09_PT031H.grib2 2026-04-26 21:30 543K
20260426T18Z_MSC_RDPS_Rain-Accum_Sfc_RLatLon0.09_PT031H.grib2 2026-04-26 21:30 1.4M
20260426T18Z_MSC_RDPS_RelativeHumidity_AGL-2m_RLatLon0.09_PT031H.grib2 2026-04-26 21:30 1.0M
20260426T18Z_MSC_RDPS_RelativeHumidity_IsbL-0010_RLatLon0.09_PT031H.grib2 2026-04-26 21:30 630K
20260426T18Z_MSC_RDPS_RelativeHumidity_IsbL-0020_RLatLon0.09_PT031H.grib2 2026-04-26 21:30 653K
20260426T18Z_MSC_RDPS_RelativeHumidity_IsbL-0030_RLatLon0.09_PT031H.grib2 2026-04-26 21:30 541K
20260426T18Z_MSC_RDPS_RelativeHumidity_IsbL-0050_RLatLon0.09_PT031H.grib2 2026-04-26 21:30 328K
20260426T18Z_MSC_RDPS_RelativeHumidity_IsbL-0100_RLatLon0.09_PT031H.grib2 2026-04-26 21:30 281K
20260426T18Z_MSC_RDPS_RelativeHumidity_IsbL-0150_RLatLon0.09_PT031H.grib2 2026-04-26 21:30 415K
20260426T18Z_MSC_RDPS_RelativeHumidity_IsbL-0175_RLatLon0.09_PT031H.grib2 2026-04-26 21:30 489K
20260426T18Z_MSC_RDPS_RelativeHumidity_IsbL-0200_RLatLon0.09_PT031H.grib2 2026-04-26 21:30 563K
20260426T18Z_MSC_RDPS_RelativeHumidity_IsbL-0225_RLatLon0.09_PT031H.grib2 2026-04-26 21:30 629K
20260426T18Z_MSC_RDPS_RelativeHumidity_IsbL-0250_RLatLon0.09_PT031H.grib2 2026-04-26 21:30 691K
20260426T18Z_MSC_RDPS_RelativeHumidity_IsbL-0275_RLatLon0.09_PT031H.grib2 2026-04-26 21:30 721K
20260426T18Z_MSC_RDPS_RelativeHumidity_IsbL-0300_RLatLon0.09_PT031H.grib2 2026-04-26 21:30 766K
20260426T18Z_MSC_RDPS_RelativeHumidity_IsbL-0350_RLatLon0.09_PT031H.grib2 2026-04-26 21:30 783K
20260426T18Z_MSC_RDPS_RelativeHumidity_IsbL-0400_RLatLon0.09_PT031H.grib2 2026-04-26 21:30 799K
20260426T18Z_MSC_RDPS_RelativeHumidity_IsbL-0450_RLatLon0.09_PT031H.grib2 2026-04-26 21:30 813K
20260426T18Z_MSC_RDPS_RelativeHumidity_IsbL-0500_RLatLon0.09_PT031H.grib2 2026-04-26 21:30 821K
20260426T18Z_MSC_RDPS_RelativeHumidity_IsbL-0550_RLatLon0.09_PT031H.grib2 2026-04-26 21:30 849K
20260426T18Z_MSC_RDPS_RelativeHumidity_IsbL-0600_RLatLon0.09_PT031H.grib2 2026-04-26 21:30 865K
20260426T18Z_MSC_RDPS_RelativeHumidity_IsbL-0650_RLatLon0.09_PT031H.grib2 2026-04-26 21:30 868K
20260426T18Z_MSC_RDPS_RelativeHumidity_IsbL-0700_RLatLon0.09_PT031H.grib2 2026-04-26 21:30 903K
20260426T18Z_MSC_RDPS_RelativeHumidity_IsbL-0750_RLatLon0.09_PT031H.grib2 2026-04-26 21:30 948K
20260426T18Z_MSC_RDPS_RelativeHumidity_IsbL-0800_RLatLon0.09_PT031H.grib2 2026-04-26 21:30 1.0M
20260426T18Z_MSC_RDPS_RelativeHumidity_IsbL-0850_RLatLon0.09_PT031H.grib2 2026-04-26 21:30 1.0M
20260426T18Z_MSC_RDPS_RelativeHumidity_IsbL-0875_RLatLon0.09_PT031H.grib2 2026-04-26 21:30 1.1M
20260426T18Z_MSC_RDPS_RelativeHumidity_IsbL-0900_RLatLon0.09_PT031H.grib2 2026-04-26 21:30 1.1M
20260426T18Z_MSC_RDPS_RelativeHumidity_IsbL-0925_RLatLon0.09_PT031H.grib2 2026-04-26 21:30 1.1M
20260426T18Z_MSC_RDPS_RelativeHumidity_IsbL-0950_RLatLon0.09_PT031H.grib2 2026-04-26 21:30 1.1M
20260426T18Z_MSC_RDPS_RelativeHumidity_IsbL-0970_RLatLon0.09_PT031H.grib2 2026-04-26 21:30 1.0M
20260426T18Z_MSC_RDPS_RelativeHumidity_IsbL-0985_RLatLon0.09_PT031H.grib2 2026-04-26 21:30 1.0M
20260426T18Z_MSC_RDPS_RelativeHumidity_IsbL-1000_RLatLon0.09_PT031H.grib2 2026-04-26 21:30 1.0M
20260426T18Z_MSC_RDPS_RelativeHumidity_IsbL-1015_RLatLon0.09_PT031H.grib2 2026-04-26 21:30 1.0M
20260426T18Z_MSC_RDPS_Runoff-Accum_Sfc_RLatLon0.09_PT031H.grib2 2026-04-26 21:30 55K
20260426T18Z_MSC_RDPS_SWEATIndex_Sfc_RLatLon0.09_PT031H.grib2 2026-04-26 21:30 2.4M
20260426T18Z_MSC_RDPS_SeeingIndex_EAtm_RLatLon0.09_PT031H.grib2 2026-04-26 21:30 1.0M
20260426T18Z_MSC_RDPS_SensibleHeatNetFlux_Sfc_RLatLon0.09_PT031H.grib2 2026-04-26 21:30 307K
20260426T18Z_MSC_RDPS_ShowalterIndex_IsbL-0500_RLatLon0.09_PT031H.grib2 2026-04-26 21:30 2.5M
20260426T18Z_MSC_RDPS_SkyTransparencyIndex_EAtm_RLatLon0.09_PT031H.grib2 2026-04-26 21:30 708K
20260426T18Z_MSC_RDPS_Snow-Accum1h_Sfc_RLatLon0.09_PT031H.grib2 2026-04-26 21:30 420K
20260426T18Z_MSC_RDPS_Snow-Accum_Sfc_RLatLon0.09_PT031H.grib2 2026-04-26 21:30 743K
20260426T18Z_MSC_RDPS_SnowDensity_Sfc_RLatLon0.09_PT031H.grib2 2026-04-26 21:30 184K
20260426T18Z_MSC_RDPS_SnowDepth_Sfc_RLatLon0.09_PT031H.grib2 2026-04-26 21:30 717K
20260426T18Z_MSC_RDPS_SoilTemp_DBS-0to10cm_RLatLon0.09_PT031H.grib2 2026-04-26 21:30 233K
20260426T18Z_MSC_RDPS_SoilTemp_Sfc_RLatLon0.09_PT031H.grib2 2026-04-26 21:30 280K
20260426T18Z_MSC_RDPS_SoilVolumetricIceContent_Sfc_RLatLon0.09_PT031H.grib2 2026-04-26 21:30 168K
20260426T18Z_MSC_RDPS_SoilVolumetricWaterContent_DBS-0to10cm_RLatLon0.09_PT031H.grib2 2026-04-26 21:30 260K
20260426T18Z_MSC_RDPS_SoilVolumetricWaterContent_DBS-0to1cm_RLatLon0.09_PT031H.grib2 2026-04-26 21:30 339K
20260426T18Z_MSC_RDPS_SpecificHumidity_AGL-120m_RLatLon0.09_PT031H.grib2 2026-04-26 21:30 483K
20260426T18Z_MSC_RDPS_SpecificHumidity_AGL-2m_RLatLon0.09_PT031H.grib2 2026-04-26 21:30 652K
20260426T18Z_MSC_RDPS_SpecificHumidity_AGL-40m_RLatLon0.09_PT031H.grib2 2026-04-26 21:30 489K
20260426T18Z_MSC_RDPS_SpecificHumidity_AGL-80m_RLatLon0.09_PT031H.grib2 2026-04-26 21:30 485K
20260426T18Z_MSC_RDPS_SpecificHumidity_IsbL-0001_RLatLon0.09_PT031H.grib2 2026-04-26 21:30 341K
20260426T18Z_MSC_RDPS_SpecificHumidity_IsbL-0005_RLatLon0.09_PT031H.grib2 2026-04-26 21:30 359K
20260426T18Z_MSC_RDPS_SpecificHumidity_IsbL-0010_RLatLon0.09_PT031H.grib2 2026-04-26 21:30 400K
20260426T18Z_MSC_RDPS_SpecificHumidity_IsbL-0020_RLatLon0.09_PT031H.grib2 2026-04-26 21:30 389K
20260426T18Z_MSC_RDPS_SpecificHumidity_IsbL-0030_RLatLon0.09_PT031H.grib2 2026-04-26 21:30 449K
20260426T18Z_MSC_RDPS_SpecificHumidity_IsbL-0050_RLatLon0.09_PT031H.grib2 2026-04-26 21:30 497K
20260426T18Z_MSC_RDPS_SpecificHumidity_IsbL-0100_RLatLon0.09_PT031H.grib2 2026-04-26 21:30 447K
20260426T18Z_MSC_RDPS_SpecificHumidity_IsbL-0150_RLatLon0.09_PT031H.grib2 2026-04-26 21:30 457K
20260426T18Z_MSC_RDPS_SpecificHumidity_IsbL-0175_RLatLon0.09_PT031H.grib2 2026-04-26 21:30 472K
20260426T18Z_MSC_RDPS_SpecificHumidity_IsbL-0200_RLatLon0.09_PT031H.grib2 2026-04-26 21:30 467K
20260426T18Z_MSC_RDPS_SpecificHumidity_IsbL-0225_RLatLon0.09_PT031H.grib2 2026-04-26 21:30 466K
20260426T18Z_MSC_RDPS_SpecificHumidity_IsbL-0250_RLatLon0.09_PT031H.grib2 2026-04-26 21:30 563K
20260426T18Z_MSC_RDPS_SpecificHumidity_IsbL-0275_RLatLon0.09_PT031H.grib2 2026-04-26 21:30 479K
20260426T18Z_MSC_RDPS_SpecificHumidity_IsbL-0300_RLatLon0.09_PT031H.grib2 2026-04-26 21:30 550K
20260426T18Z_MSC_RDPS_SpecificHumidity_IsbL-0350_RLatLon0.09_PT031H.grib2 2026-04-26 21:30 538K
20260426T18Z_MSC_RDPS_SpecificHumidity_IsbL-0400_RLatLon0.09_PT031H.grib2 2026-04-26 21:30 522K
20260426T18Z_MSC_RDPS_SpecificHumidity_IsbL-0450_RLatLon0.09_PT031H.grib2 2026-04-26 21:30 581K
20260426T18Z_MSC_RDPS_SpecificHumidity_IsbL-0500_RLatLon0.09_PT031H.grib2 2026-04-26 21:30 520K
20260426T18Z_MSC_RDPS_SpecificHumidity_IsbL-0550_RLatLon0.09_PT031H.grib2 2026-04-26 21:30 576K
20260426T18Z_MSC_RDPS_SpecificHumidity_IsbL-0600_RLatLon0.09_PT031H.grib2 2026-04-26 21:30 641K
20260426T18Z_MSC_RDPS_SpecificHumidity_IsbL-0650_RLatLon0.09_PT031H.grib2 2026-04-26 21:30 557K
20260426T18Z_MSC_RDPS_SpecificHumidity_IsbL-0700_RLatLon0.09_PT031H.grib2 2026-04-26 21:30 603K
20260426T18Z_MSC_RDPS_SpecificHumidity_IsbL-0750_RLatLon0.09_PT031H.grib2 2026-04-26 21:30 663K
20260426T18Z_MSC_RDPS_SpecificHumidity_IsbL-0800_RLatLon0.09_PT031H.grib2 2026-04-26 21:30 740K
20260426T18Z_MSC_RDPS_SpecificHumidity_IsbL-0850_RLatLon0.09_PT031H.grib2 2026-04-26 21:30 806K
20260426T18Z_MSC_RDPS_SpecificHumidity_IsbL-0875_RLatLon0.09_PT031H.grib2 2026-04-26 21:30 829K
20260426T18Z_MSC_RDPS_SpecificHumidity_IsbL-0900_RLatLon0.09_PT031H.grib2 2026-04-26 21:30 702K
20260426T18Z_MSC_RDPS_SpecificHumidity_IsbL-0925_RLatLon0.09_PT031H.grib2 2026-04-26 21:30 703K
20260426T18Z_MSC_RDPS_SpecificHumidity_IsbL-0950_RLatLon0.09_PT031H.grib2 2026-04-26 21:30 699K
20260426T18Z_MSC_RDPS_SpecificHumidity_IsbL-0970_RLatLon0.09_PT031H.grib2 2026-04-26 21:30 688K
20260426T18Z_MSC_RDPS_SpecificHumidity_IsbL-0985_RLatLon0.09_PT031H.grib2 2026-04-26 21:30 678K
20260426T18Z_MSC_RDPS_SpecificHumidity_IsbL-1000_RLatLon0.09_PT031H.grib2 2026-04-26 21:30 673K
20260426T18Z_MSC_RDPS_SpecificHumidity_IsbL-1015_RLatLon0.09_PT031H.grib2 2026-04-26 21:30 666K
20260426T18Z_MSC_RDPS_SpecificHumidity_Sfc_RLatLon0.09_PT031H.grib2 2026-04-26 21:30 324K
20260426T18Z_MSC_RDPS_StormRelativeHelicity_EtaL-10000_RLatLon0.09_PT031H.grib2 2026-04-26 21:30 1.1M
20260426T18Z_MSC_RDPS_StormSeverityIndex_EtaL-10000_RLatLon0.09_PT031H.grib2 2026-04-26 21:30 1.1M
20260426T18Z_MSC_RDPS_Thickness_IsbL-0850to0700_RLatLon0.09_PT031H.grib2 2026-04-26 21:30 176K
20260426T18Z_MSC_RDPS_Thickness_IsbL-1000to0500_RLatLon0.09_PT031H.grib2 2026-04-26 21:30 198K
20260426T18Z_MSC_RDPS_Thickness_IsbL-1000to0850_RLatLon0.09_PT031H.grib2 2026-04-26 21:30 182K
20260426T18Z_MSC_RDPS_TotalCloudCover_Sfc_RLatLon0.09_PT031H.grib2 2026-04-26 21:30 650K
20260426T18Z_MSC_RDPS_TotalTotalsIndex_Sfc_RLatLon0.09_PT031H.grib2 2026-04-26 21:30 2.4M
20260426T18Z_MSC_RDPS_UVIndex-ClearSky_Sfc_RLatLon0.09_PT031H.grib2 2026-04-26 21:30 142K
20260426T18Z_MSC_RDPS_UVIndex_Sfc_RLatLon0.09_PT031H.grib2 2026-04-26 21:30 321K
20260426T18Z_MSC_RDPS_UpwardLongwaveRadiationFlux_NTAtm_RLatLon0.09_PT031H.grib2 2026-04-26 21:30 497K
20260426T18Z_MSC_RDPS_UpwardShortwaveRadiationFlux_NTAtm_RLatLon0.09_PT031H.grib2 2026-04-26 21:30 294K
20260426T18Z_MSC_RDPS_VerticalVelocity_IsbL-0250_RLatLon0.09_PT031H.grib2 2026-04-26 21:30 577K
20260426T18Z_MSC_RDPS_VerticalVelocity_IsbL-0500_RLatLon0.09_PT031H.grib2 2026-04-26 21:30 543K
20260426T18Z_MSC_RDPS_VerticalVelocity_IsbL-0700_RLatLon0.09_PT031H.grib2 2026-04-26 21:30 595K
20260426T18Z_MSC_RDPS_VerticalVelocity_IsbL-0850_RLatLon0.09_PT031H.grib2 2026-04-26 21:30 692K
20260426T18Z_MSC_RDPS_VerticalWindShear_EtaL-6500_RLatLon0.09_PT031H.grib2 2026-04-26 21:30 1.2M
20260426T18Z_MSC_RDPS_WindChill_Sfc_RLatLon0.09_PT031H.grib2 2026-04-26 21:30 1.1M
20260426T18Z_MSC_RDPS_WindDir_AGL-10m_RLatLon0.09_PT031H.grib2 2026-04-26 21:30 952K
20260426T18Z_MSC_RDPS_WindDir_AGL-120m_RLatLon0.09_PT031H.grib2 2026-04-26 21:30 596K
20260426T18Z_MSC_RDPS_WindDir_AGL-40m_RLatLon0.09_PT031H.grib2 2026-04-26 21:30 623K
20260426T18Z_MSC_RDPS_WindDir_AGL-80m_RLatLon0.09_PT031H.grib2 2026-04-26 21:30 607K
20260426T18Z_MSC_RDPS_WindDir_IsbL-0001_RLatLon0.09_PT031H.grib2 2026-04-26 21:30 290K
20260426T18Z_MSC_RDPS_WindDir_IsbL-0005_RLatLon0.09_PT031H.grib2 2026-04-26 21:30 370K
20260426T18Z_MSC_RDPS_WindDir_IsbL-0010_RLatLon0.09_PT031H.grib2 2026-04-26 21:30 407K
20260426T18Z_MSC_RDPS_WindDir_IsbL-0020_RLatLon0.09_PT031H.grib2 2026-04-26 21:30 419K
20260426T18Z_MSC_RDPS_WindDir_IsbL-0030_RLatLon0.09_PT031H.grib2 2026-04-26 21:30 428K
20260426T18Z_MSC_RDPS_WindDir_IsbL-0050_RLatLon0.09_PT031H.grib2 2026-04-26 21:30 434K
20260426T18Z_MSC_RDPS_WindDir_IsbL-0100_RLatLon0.09_PT031H.grib2 2026-04-26 21:30 411K
20260426T18Z_MSC_RDPS_WindDir_IsbL-0150_RLatLon0.09_PT031H.grib2 2026-04-26 21:30 416K
20260426T18Z_MSC_RDPS_WindDir_IsbL-0175_RLatLon0.09_PT031H.grib2 2026-04-26 21:30 438K
20260426T18Z_MSC_RDPS_WindDir_IsbL-0200_RLatLon0.09_PT031H.grib2 2026-04-26 21:30 449K
20260426T18Z_MSC_RDPS_WindDir_IsbL-0225_RLatLon0.09_PT031H.grib2 2026-04-26 21:30 449K
20260426T18Z_MSC_RDPS_WindDir_IsbL-0250_RLatLon0.09_PT031H.grib2 2026-04-26 21:30 446K
20260426T18Z_MSC_RDPS_WindDir_IsbL-0275_RLatLon0.09_PT031H.grib2 2026-04-26 21:30 465K
20260426T18Z_MSC_RDPS_WindDir_IsbL-0300_RLatLon0.09_PT031H.grib2 2026-04-26 21:30 465K
20260426T18Z_MSC_RDPS_WindDir_IsbL-0350_RLatLon0.09_PT031H.grib2 2026-04-26 21:30 490K
20260426T18Z_MSC_RDPS_WindDir_IsbL-0400_RLatLon0.09_PT031H.grib2 2026-04-26 21:30 508K
20260426T18Z_MSC_RDPS_WindDir_IsbL-0450_RLatLon0.09_PT031H.grib2 2026-04-26 21:30 523K
20260426T18Z_MSC_RDPS_WindDir_IsbL-0500_RLatLon0.09_PT031H.grib2 2026-04-26 21:30 539K
20260426T18Z_MSC_RDPS_WindDir_IsbL-0550_RLatLon0.09_PT031H.grib2 2026-04-26 21:30 555K
20260426T18Z_MSC_RDPS_WindDir_IsbL-0600_RLatLon0.09_PT031H.grib2 2026-04-26 21:30 582K
20260426T18Z_MSC_RDPS_WindDir_IsbL-0650_RLatLon0.09_PT031H.grib2 2026-04-26 21:30 625K
20260426T18Z_MSC_RDPS_WindDir_IsbL-0700_RLatLon0.09_PT031H.grib2 2026-04-26 21:30 667K
20260426T18Z_MSC_RDPS_WindDir_IsbL-0750_RLatLon0.09_PT031H.grib2 2026-04-26 21:30 719K
20260426T18Z_MSC_RDPS_WindDir_IsbL-0800_RLatLon0.09_PT031H.grib2 2026-04-26 21:30 788K
20260426T18Z_MSC_RDPS_WindDir_IsbL-0850_RLatLon0.09_PT031H.grib2 2026-04-26 21:30 858K
20260426T18Z_MSC_RDPS_WindDir_IsbL-0875_RLatLon0.09_PT031H.grib2 2026-04-26 21:30 881K
20260426T18Z_MSC_RDPS_WindDir_IsbL-0900_RLatLon0.09_PT031H.grib2 2026-04-26 21:30 898K
20260426T18Z_MSC_RDPS_WindDir_IsbL-0925_RLatLon0.09_PT031H.grib2 2026-04-26 21:30 901K
20260426T18Z_MSC_RDPS_WindDir_IsbL-0950_RLatLon0.09_PT031H.grib2 2026-04-26 21:30 897K
20260426T18Z_MSC_RDPS_WindDir_IsbL-0970_RLatLon0.09_PT031H.grib2 2026-04-26 21:30 901K
20260426T18Z_MSC_RDPS_WindDir_IsbL-0985_RLatLon0.09_PT031H.grib2 2026-04-26 21:30 911K
20260426T18Z_MSC_RDPS_WindDir_IsbL-1000_RLatLon0.09_PT031H.grib2 2026-04-26 21:30 926K
20260426T18Z_MSC_RDPS_WindDir_IsbL-1015_RLatLon0.09_PT031H.grib2 2026-04-26 21:30 944K
20260426T18Z_MSC_RDPS_WindGust-Max_AGL-10m_RLatLon0.09_PT031H.grib2 2026-04-26 21:30 950K
20260426T18Z_MSC_RDPS_WindGust-Min_AGL-10m_RLatLon0.09_PT031H.grib2 2026-04-26 21:30 929K
20260426T18Z_MSC_RDPS_WindGust_AGL-10m_RLatLon0.09_PT031H.grib2 2026-04-26 21:30 941K
20260426T18Z_MSC_RDPS_WindSpeed_AGL-10m_RLatLon0.09_PT031H.grib2 2026-04-26 21:30 839K
20260426T18Z_MSC_RDPS_WindSpeed_AGL-120m_RLatLon0.09_PT031H.grib2 2026-04-26 21:30 544K
20260426T18Z_MSC_RDPS_WindSpeed_AGL-40m_RLatLon0.09_PT031H.grib2 2026-04-26 21:30 552K
20260426T18Z_MSC_RDPS_WindSpeed_AGL-80m_RLatLon0.09_PT031H.grib2 2026-04-26 21:30 547K
20260426T18Z_MSC_RDPS_WindSpeed_IsbL-0001_RLatLon0.09_PT031H.grib2 2026-04-26 21:30 251K
20260426T18Z_MSC_RDPS_WindSpeed_IsbL-0005_RLatLon0.09_PT031H.grib2 2026-04-26 21:30 300K
20260426T18Z_MSC_RDPS_WindSpeed_IsbL-0010_RLatLon0.09_PT031H.grib2 2026-04-26 21:30 410K
20260426T18Z_MSC_RDPS_WindSpeed_IsbL-0020_RLatLon0.09_PT031H.grib2 2026-04-26 21:30 331K
20260426T18Z_MSC_RDPS_WindSpeed_IsbL-0030_RLatLon0.09_PT031H.grib2 2026-04-26 21:30 324K
20260426T18Z_MSC_RDPS_WindSpeed_IsbL-0050_RLatLon0.09_PT031H.grib2 2026-04-26 21:30 358K
20260426T18Z_MSC_RDPS_WindSpeed_IsbL-0100_RLatLon0.09_PT031H.grib2 2026-04-26 21:30 482K
20260426T18Z_MSC_RDPS_WindSpeed_IsbL-0150_RLatLon0.09_PT031H.grib2 2026-04-26 21:30 385K
20260426T18Z_MSC_RDPS_WindSpeed_IsbL-0175_RLatLon0.09_PT031H.grib2 2026-04-26 21:30 414K
20260426T18Z_MSC_RDPS_WindSpeed_IsbL-0200_RLatLon0.09_PT031H.grib2 2026-04-26 21:30 448K
20260426T18Z_MSC_RDPS_WindSpeed_IsbL-0225_RLatLon0.09_PT031H.grib2 2026-04-26 21:30 452K
20260426T18Z_MSC_RDPS_WindSpeed_IsbL-0250_RLatLon0.09_PT031H.grib2 2026-04-26 21:30 455K
20260426T18Z_MSC_RDPS_WindSpeed_IsbL-0275_RLatLon0.09_PT031H.grib2 2026-04-26 21:30 471K
20260426T18Z_MSC_RDPS_WindSpeed_IsbL-0300_RLatLon0.09_PT031H.grib2 2026-04-26 21:30 469K
20260426T18Z_MSC_RDPS_WindSpeed_IsbL-0350_RLatLon0.09_PT031H.grib2 2026-04-26 21:30 479K
20260426T18Z_MSC_RDPS_WindSpeed_IsbL-0400_RLatLon0.09_PT031H.grib2 2026-04-26 21:30 463K
20260426T18Z_MSC_RDPS_WindSpeed_IsbL-0450_RLatLon0.09_PT031H.grib2 2026-04-26 21:30 463K
20260426T18Z_MSC_RDPS_WindSpeed_IsbL-0500_RLatLon0.09_PT031H.grib2 2026-04-26 21:30 462K
20260426T18Z_MSC_RDPS_WindSpeed_IsbL-0550_RLatLon0.09_PT031H.grib2 2026-04-26 21:30 580K
20260426T18Z_MSC_RDPS_WindSpeed_IsbL-0600_RLatLon0.09_PT031H.grib2 2026-04-26 21:30 590K
20260426T18Z_MSC_RDPS_WindSpeed_IsbL-0650_RLatLon0.09_PT031H.grib2 2026-04-26 21:30 611K
20260426T18Z_MSC_RDPS_WindSpeed_IsbL-0700_RLatLon0.09_PT031H.grib2 2026-04-26 21:30 677K
20260426T18Z_MSC_RDPS_WindSpeed_IsbL-0750_RLatLon0.09_PT031H.grib2 2026-04-26 21:30 705K
20260426T18Z_MSC_RDPS_WindSpeed_IsbL-0800_RLatLon0.09_PT031H.grib2 2026-04-26 21:30 751K
20260426T18Z_MSC_RDPS_WindSpeed_IsbL-0850_RLatLon0.09_PT031H.grib2 2026-04-26 21:30 760K
20260426T18Z_MSC_RDPS_WindSpeed_IsbL-0875_RLatLon0.09_PT031H.grib2 2026-04-26 21:30 782K
20260426T18Z_MSC_RDPS_WindSpeed_IsbL-0900_RLatLon0.09_PT031H.grib2 2026-04-26 21:30 799K
20260426T18Z_MSC_RDPS_WindSpeed_IsbL-0925_RLatLon0.09_PT031H.grib2 2026-04-26 21:30 809K
20260426T18Z_MSC_RDPS_WindSpeed_IsbL-0950_RLatLon0.09_PT031H.grib2 2026-04-26 21:30 810K
20260426T18Z_MSC_RDPS_WindSpeed_IsbL-0970_RLatLon0.09_PT031H.grib2 2026-04-26 21:30 859K
20260426T18Z_MSC_RDPS_WindSpeed_IsbL-0985_RLatLon0.09_PT031H.grib2 2026-04-26 21:30 858K
20260426T18Z_MSC_RDPS_WindSpeed_IsbL-1000_RLatLon0.09_PT031H.grib2 2026-04-26 21:30 848K
20260426T18Z_MSC_RDPS_WindSpeed_IsbL-1015_RLatLon0.09_PT031H.grib2 2026-04-26 21:30 841K
20260426T18Z_MSC_RDPS_WindU_AGL-10m_RLatLon0.09_PT031H.grib2 2026-04-26 21:30 432K
20260426T18Z_MSC_RDPS_WindU_AGL-120m_RLatLon0.09_PT031H.grib2 2026-04-26 21:30 415K
20260426T18Z_MSC_RDPS_WindU_AGL-40m_RLatLon0.09_PT031H.grib2 2026-04-26 21:30 537K
20260426T18Z_MSC_RDPS_WindU_AGL-80m_RLatLon0.09_PT031H.grib2 2026-04-26 21:30 417K
20260426T18Z_MSC_RDPS_WindU_IsbL-0001_RLatLon0.09_PT031H.grib2 2026-04-26 21:30 293K
20260426T18Z_MSC_RDPS_WindU_IsbL-0005_RLatLon0.09_PT031H.grib2 2026-04-26 21:30 335K
20260426T18Z_MSC_RDPS_WindU_IsbL-0010_RLatLon0.09_PT031H.grib2 2026-04-26 21:30 304K
20260426T18Z_MSC_RDPS_WindU_IsbL-0020_RLatLon0.09_PT031H.grib2 2026-04-26 21:30 358K
20260426T18Z_MSC_RDPS_WindU_IsbL-0030_RLatLon0.09_PT031H.grib2 2026-04-26 21:30 354K
20260426T18Z_MSC_RDPS_WindU_IsbL-0050_RLatLon0.09_PT031H.grib2 2026-04-26 21:30 384K
20260426T18Z_MSC_RDPS_WindU_IsbL-0100_RLatLon0.09_PT031H.grib2 2026-04-26 21:30 439K
20260426T18Z_MSC_RDPS_WindU_IsbL-0150_RLatLon0.09_PT031H.grib2 2026-04-26 21:30 401K
20260426T18Z_MSC_RDPS_WindU_IsbL-0175_RLatLon0.09_PT031H.grib2 2026-04-26 21:30 427K
20260426T18Z_MSC_RDPS_WindU_IsbL-0200_RLatLon0.09_PT031H.grib2 2026-04-26 21:30 441K
20260426T18Z_MSC_RDPS_WindU_IsbL-0225_RLatLon0.09_PT031H.grib2 2026-04-26 21:30 346K
20260426T18Z_MSC_RDPS_WindU_IsbL-0250_RLatLon0.09_PT031H.grib2 2026-04-26 21:30 346K
20260426T18Z_MSC_RDPS_WindU_IsbL-0275_RLatLon0.09_PT031H.grib2 2026-04-26 21:30 359K
20260426T18Z_MSC_RDPS_WindU_IsbL-0300_RLatLon0.09_PT031H.grib2 2026-04-26 21:30 355K
20260426T18Z_MSC_RDPS_WindU_IsbL-0350_RLatLon0.09_PT031H.grib2 2026-04-26 21:30 364K
20260426T18Z_MSC_RDPS_WindU_IsbL-0400_RLatLon0.09_PT031H.grib2 2026-04-26 21:30 365K
20260426T18Z_MSC_RDPS_WindU_IsbL-0450_RLatLon0.09_PT031H.grib2 2026-04-26 21:30 469K
20260426T18Z_MSC_RDPS_WindU_IsbL-0500_RLatLon0.09_PT031H.grib2 2026-04-26 21:30 469K
20260426T18Z_MSC_RDPS_WindU_IsbL-0550_RLatLon0.09_PT031H.grib2 2026-04-26 21:30 471K
20260426T18Z_MSC_RDPS_WindU_IsbL-0600_RLatLon0.09_PT031H.grib2 2026-04-26 21:30 480K
20260426T18Z_MSC_RDPS_WindU_IsbL-0650_RLatLon0.09_PT031H.grib2 2026-04-26 21:30 497K
20260426T18Z_MSC_RDPS_WindU_IsbL-0700_RLatLon0.09_PT031H.grib2 2026-04-26 21:30 517K
20260426T18Z_MSC_RDPS_WindU_IsbL-0750_RLatLon0.09_PT031H.grib2 2026-04-26 21:30 527K
20260426T18Z_MSC_RDPS_WindU_IsbL-0800_RLatLon0.09_PT031H.grib2 2026-04-26 21:30 568K
20260426T18Z_MSC_RDPS_WindU_IsbL-0850_RLatLon0.09_PT031H.grib2 2026-04-26 21:30 615K
20260426T18Z_MSC_RDPS_WindU_IsbL-0875_RLatLon0.09_PT031H.grib2 2026-04-26 21:30 633K
20260426T18Z_MSC_RDPS_WindU_IsbL-0900_RLatLon0.09_PT031H.grib2 2026-04-26 21:30 647K
20260426T18Z_MSC_RDPS_WindU_IsbL-0925_RLatLon0.09_PT031H.grib2 2026-04-26 21:30 653K
20260426T18Z_MSC_RDPS_WindU_IsbL-0950_RLatLon0.09_PT031H.grib2 2026-04-26 21:30 651K
20260426T18Z_MSC_RDPS_WindU_IsbL-0970_RLatLon0.09_PT031H.grib2 2026-04-26 21:30 651K
20260426T18Z_MSC_RDPS_WindU_IsbL-0985_RLatLon0.09_PT031H.grib2 2026-04-26 21:30 650K
20260426T18Z_MSC_RDPS_WindU_IsbL-1000_RLatLon0.09_PT031H.grib2 2026-04-26 21:30 784K
20260426T18Z_MSC_RDPS_WindU_IsbL-1015_RLatLon0.09_PT031H.grib2 2026-04-26 21:30 780K
20260426T18Z_MSC_RDPS_WindV_AGL-10m_RLatLon0.09_PT031H.grib2 2026-04-26 21:30 429K
20260426T18Z_MSC_RDPS_WindV_AGL-120m_RLatLon0.09_PT031H.grib2 2026-04-26 21:30 413K
20260426T18Z_MSC_RDPS_WindV_AGL-40m_RLatLon0.09_PT031H.grib2 2026-04-26 21:30 534K
20260426T18Z_MSC_RDPS_WindV_AGL-80m_RLatLon0.09_PT031H.grib2 2026-04-26 21:30 415K
20260426T18Z_MSC_RDPS_WindV_IsbL-0001_RLatLon0.09_PT031H.grib2 2026-04-26 21:30 291K
20260426T18Z_MSC_RDPS_WindV_IsbL-0005_RLatLon0.09_PT031H.grib2 2026-04-26 21:30 291K
20260426T18Z_MSC_RDPS_WindV_IsbL-0010_RLatLon0.09_PT031H.grib2 2026-04-26 21:30 345K
20260426T18Z_MSC_RDPS_WindV_IsbL-0020_RLatLon0.09_PT031H.grib2 2026-04-26 21:30 322K
20260426T18Z_MSC_RDPS_WindV_IsbL-0030_RLatLon0.09_PT031H.grib2 2026-04-26 21:30 319K
20260426T18Z_MSC_RDPS_WindV_IsbL-0050_RLatLon0.09_PT031H.grib2 2026-04-26 21:30 350K
20260426T18Z_MSC_RDPS_WindV_IsbL-0100_RLatLon0.09_PT031H.grib2 2026-04-26 21:30 338K
20260426T18Z_MSC_RDPS_WindV_IsbL-0150_RLatLon0.09_PT031H.grib2 2026-04-26 21:30 399K
20260426T18Z_MSC_RDPS_WindV_IsbL-0175_RLatLon0.09_PT031H.grib2 2026-04-26 21:30 426K
20260426T18Z_MSC_RDPS_WindV_IsbL-0200_RLatLon0.09_PT031H.grib2 2026-04-26 21:30 343K
20260426T18Z_MSC_RDPS_WindV_IsbL-0225_RLatLon0.09_PT031H.grib2 2026-04-26 21:30 344K
20260426T18Z_MSC_RDPS_WindV_IsbL-0250_RLatLon0.09_PT031H.grib2 2026-04-26 21:30 344K
20260426T18Z_MSC_RDPS_WindV_IsbL-0275_RLatLon0.09_PT031H.grib2 2026-04-26 21:30 382K
20260426T18Z_MSC_RDPS_WindV_IsbL-0300_RLatLon0.09_PT031H.grib2 2026-04-26 21:30 354K
20260426T18Z_MSC_RDPS_WindV_IsbL-0350_RLatLon0.09_PT031H.grib2 2026-04-26 21:30 361K
20260426T18Z_MSC_RDPS_WindV_IsbL-0400_RLatLon0.09_PT031H.grib2 2026-04-26 21:30 363K
20260426T18Z_MSC_RDPS_WindV_IsbL-0450_RLatLon0.09_PT031H.grib2 2026-04-26 21:30 362K
20260426T18Z_MSC_RDPS_WindV_IsbL-0500_RLatLon0.09_PT031H.grib2 2026-04-26 21:30 464K
20260426T18Z_MSC_RDPS_WindV_IsbL-0550_RLatLon0.09_PT031H.grib2 2026-04-26 21:30 465K
20260426T18Z_MSC_RDPS_WindV_IsbL-0600_RLatLon0.09_PT031H.grib2 2026-04-26 21:30 476K
20260426T18Z_MSC_RDPS_WindV_IsbL-0650_RLatLon0.09_PT031H.grib2 2026-04-26 21:30 493K
20260426T18Z_MSC_RDPS_WindV_IsbL-0700_RLatLon0.09_PT031H.grib2 2026-04-26 21:30 513K
20260426T18Z_MSC_RDPS_WindV_IsbL-0750_RLatLon0.09_PT031H.grib2 2026-04-26 21:30 523K
20260426T18Z_MSC_RDPS_WindV_IsbL-0800_RLatLon0.09_PT031H.grib2 2026-04-26 21:30 563K
20260426T18Z_MSC_RDPS_WindV_IsbL-0850_RLatLon0.09_PT031H.grib2 2026-04-26 21:30 611K
20260426T18Z_MSC_RDPS_WindV_IsbL-0875_RLatLon0.09_PT031H.grib2 2026-04-26 21:30 630K
20260426T18Z_MSC_RDPS_WindV_IsbL-0900_RLatLon0.09_PT031H.grib2 2026-04-26 21:30 644K
20260426T18Z_MSC_RDPS_WindV_IsbL-0925_RLatLon0.09_PT031H.grib2 2026-04-26 21:30 650K
20260426T18Z_MSC_RDPS_WindV_IsbL-0950_RLatLon0.09_PT031H.grib2 2026-04-26 21:30 650K
20260426T18Z_MSC_RDPS_WindV_IsbL-0970_RLatLon0.09_PT031H.grib2 2026-04-26 21:30 649K
20260426T18Z_MSC_RDPS_WindV_IsbL-0985_RLatLon0.09_PT031H.grib2 2026-04-26 21:30 647K
20260426T18Z_MSC_RDPS_WindV_IsbL-1000_RLatLon0.09_PT031H.grib2 2026-04-26 21:30 781K
20260426T18Z_MSC_RDPS_WindV_IsbL-1015_RLatLon0.09_PT031H.grib2 2026-04-26 21:30 775K